Regional Weather Roundup
Issued by NWS

Home | Current Version | Previous Version | Text Only | Print | Product List | Glossary Off
Versions: 1 2 3 4 5 6 7 8 9 10 11 12 13 14 15 16 17 18 19 20 21 22 23 24 25 26 27 28 29 30 31 32 33 34 35 36 37 38 39 40 41 42 43 44 45 46 47 48 49 50

000
ASUS43 KFSD 220310
RWRSD

WEATHER ROUNDUP FOR SOUTH DAKOTA
NATIONAL WEATHER SERVICE SIOUX FALLS SD
900 PM CST SAT JAN 21 2017

NOTE: "FAIR" INDICATES FEW OR NO CLOUDS BELOW 12,000 FEET WITH NO
SIGNIFICANT WEATHER AND/OR OBSTRUCTIONS TO VISIBILITY.


SDZ001>005-009-010-012>017-220400-
NORTHWEST AND NORTH CENTRAL SOUTH DAKOTA

CITY           SKY/WX    TMP DP  RH WIND       PRES   REMARKS
BUFFALO          N/A     26  23  88 W7        29.51R WCI  18
FAITH            N/A     23  22  96 NW12      29.56R WCI  12
MOBRIDGE         N/A     17  14  88 CALM      29.53R
$$

SDZ012>016-024>037-041>051-057-063-072>074-220400-
SOUTHWEST AND SOUTH CENTRAL SOUTH DAKOTA

CITY           SKY/WX    TMP DP  RH WIND       PRES   REMARKS
RAPID CTY ARPT CLEAR     24  21  88 NW7       29.58R WCI  16
PIERRE         CLEAR     20  19  96 CALM      29.56R
CUSTER         CLOUDY    27  24  89 NW3       29.54R
ELLSWORTH AFB  CLEAR     28  23  80 NW7       29.57R WCI  21
PHILIP         CLEAR     25  24  96 W6        29.57R WCI  18
PINE RIDGE     CLOUDY    22  21  96 CALM      29.59R
SPEARFISH      FAIR      28  21  74 CALM      29.58R
WINNER         FAIR      30  28  92 SW3       29.56R
$$

SDZ004>011-016>023-039-040-220400-
NORTHEAST SOUTH DAKOTA

CITY           SKY/WX    TMP DP  RH WIND       PRES   REMARKS
ABERDEEN       CLOUDY    33  29  85 NW6       29.55R WCI  28
WATERTOWN      CLOUDY    30  28  92 W8        29.51R WCI  22
BROOKINGS      CLOUDY    31  29  92 NW9       29.51R WCI  23
SISSETON         N/A     33  33 100 NW3       29.52R
$$

SDZ017-020-022-023-036>040-048>070-220400-
SOUTHEAST SOUTH DAKOTA

CITY           SKY/WX    TMP DP  RH WIND       PRES   REMARKS
SIOUX FALLS    CLOUDY    32  30  92 W6        29.53R WCI  26
HURON          CLOUDY    31  28  89 NW9       29.55R WCI  23
CHAMBERLAIN    FOG       29  29 100 N6        29.56R VSB 1/2 WCI  23
MITCHELL       CLOUDY    33  30  88 NW8       29.56R WCI  26
YANKTON        CLEAR     30  27  86 W6        29.56R WCI  24
$$

ABBREVIATIONS USED IN REMARKS
   TC - TEMPERATURE IN CELSIUS
  WCI - WIND CHILL INDEX
   HX - HEAT INDEX
  VSB - VISIBILITY




USA.gov is the U.S. government's official web portal to all federal, state and local government web resources and services.